Reflectivity
-20 -20 -20 -20 -20 -20 -20 -20 -20 -20 -20 -20 -20 -20 -20 -20 -20 -20 -20 -20 -20 -20 -20 -20 -20 -20 -20 -20 -20 -20 -20 -20 -20 -20 -20 -20 -20 -20 -20 -20 -20 -20 -20 -20 -20 -20 -20 -20 -20
-20 -20 -20 -20 -20 -20 -20 -20 -20 -20 -20 -20 -20 -20 -20 -20 -20 -20 -20 -20 -20 -20 -20 -20 -20 -20 -20 -20 -20 -20 -20 -20 -20 -20 -20 -20 -20 -20 -20 -20 -20 -20 -20 -20 -20 -20 -20 -20 -20
-20 -20 -20 -20 -20 -20 -20 -20 -20 -20 -20 -20 -20 -20 -20 -20 -20 -20 -20 -20 -20 -20 -20 -20 -20 -20 -20 -20 -20 -20 -20 -20 -20 -20 -20 -20 -20 -20 -20 -20 -20 -20 -20 -20 -20 -20 -20 -20 -20
-20 -20 -20 -20 -20 -20 -20 -20 -20 -20 -20 -20 -20 -20 -20 -20 -20 -20 -20 -20 -20 -20 -20 -20 -20 -20 -20 -20 -20 -20 -20 -20 -20 -20 -20 -20 -20 -20 -20 -20 -20 -20 -20 -20 -20 -20 -20 -20 -20
-20 -20 -20 -20 -20 -20 -20 -20 -20 -20 -20 -20 -20 -20 -20 -20 -20 -20 -20 -20 -20 -20 -20 -20 -20 -20 -20 -20 -20 -20 -20 -20 -20 -20 -20 -20 -20 -20 -20 -20 -20 -20 -20 -20 -20 -20 -20 -20 -20
-20 -20 -20 -20 -20 -20 -20 -20 -20 -20 -20 -20 -20 -20 -20 -20 -20 -20 -20 -20 -20 -20 -20 -20 -20 -20 -20 -20 -20 -20 -20 -20 -20 -20 -20 -20 -20 -20 -20 -20 -20 -20 -20 -20 -20 -20 -20 -20 -20
-20 -20 -20 -20 -20 -20 -20 -20 -20 -20 -20 -20 -20 -20 -20 -20 -20 -20 -20 -20 -20 -20 -20 -20 -20 -20 -20 -20 -20 -20 -20 -20 -20 -20 -20 -20 -20 -20 -20 -20 -20 -20 -20 -20 -20 -20 -20 -20 -20
-20 -20 -20 -20 -20 -20 -20 -20 -20 -20 -20 -20 -20 -20 -20 -20 -20 -20 -20 -20 -20 -20 -20 -20 -20 -20 -20 -20 -20 -20 -20 -20 -20 -20 -20 -20 -20 -20 -20 -20 -20 -20 -20 -20 -20 -20 -20 -20 -20
-20 -20 -20 -20 -20 -20 -20 -20 -20 -20 -20 -20 -20 -20 -20 -20 -20 -20 -20 -20 -20 -20 -20 -20 -20 -20 -20 -20 -20 -20 -20 -20 -20 -20 -20 -20 -20 -20 -20 -20 -20 -20 -20 -20 -20 -20 -20 -20 -20
-20 -20 -20 -20 -20 -20 -20 -20 -20 -20 -20 -20 -20 -20 -20 -20 -20 -20 -20 -20 -20 -20 -20 -20 -20 -20 -20 -20 -20 -20 -20 -20 -20 -20 -20 -20 -20 -20 -20 -20 -20 -20 -20 -20 -20 -20 -20 -20 -20
-20 -20 -20 -20 -20 -20 -20 -20 -20 -20 -20 -20 -20 -20 -20 -20 -20 -20 -20 -20 -20 -20 -20 -20 -20 -20 -20 -20 -20 -20 -20 -20 -20 -20 -20 -20 -20 -20 -20 -20 -20 -20 -20 -20 -20 -20 -20 -20 -20
-20 -20 -20 -20 -20 -20 -20 -20 -20 -20 -20 -20 -20 -20 -20 -20 -20 -20 -20 -20 -20 -20 -20 -20 -20 -20 -20 -20 -20 -20 -20 -20 -20 -20 -20 -20 -20 -20 -20 -20 -20 -20 -20 -20 -20 -20 -20 -20 -20
-20 -20 -20 -20 -20 -20 -20 -20 -20 -20 -20 -20 -20 -20 -20 -20 -20 -20 -20 -20 -20 -20 -20 -20 -20 -20 -20 -20 -20 -20 -20 -20 -20 -20 -20 -20 -20 -20 -20 -20 -20 -20 -20 -20 -20 -20 -20 -20 -20
-20 -20 -20 -20 -20 -20 -20 -20 -20 -20 -20 -20 -20 -20 -20 -20 -20 -20 -20 -20 -20 -20 -20 -20 -20 -20 -20 -20 -20 -20 -20 -20 -20 -20 -20 -20 -20 -20 -20 -20 -20 -20 -20 -20 -20 -20 -20 -20 -20
-20 -20 -20 -20 -20 -20 -20 -20 -20 -20 -20 -20 -20 -20 -20 -20 -20 -20 -20 -20 -20 -20 -20 -20 -20 -20 -20 -20 -20 -20 -20 -20 -20 -20 -20 -20 -20 -20 -20 -20 -20 -20 -20 -20 -20 -20 -20 -20 -20
-20 -20 -20 -20 -20 -20 -20 -20 -20 -20 -20 -20 -20 -20 -20 -20 -20 -20 -20 -20 -20 -20 -20 -20 -20 -20 -20 -20 -20 -20 -20 -20 -20 -20 -20 -20 -20 -20 -20 -20 -20 -20 -20 -20 -20 -20 -20 -20 -20
-20 -20 -20 -20 -20 -20 -20 -20 -20 -20 -20 -20 -20 -20 -20 -20 -20 -20 -20 -20 -20 -20 -20 -20 -20 -20 -20 -20 -20 -20 -20 -20 -20 -20 -20 -20 -20 -20 -20 -20 -20 -20 -20 -20 -20 -20 -20 -20 -20
-20 -20 -20 -20 -20 -20 -20 -20 -20 -20 -20 -20 -20 -20 -20 -20 -20 -20 -20 -20 -20 -20 -20 -20 -20 -20 -20 -20 -20 -20 -20 -20 -20 -20 -20 -20 -20 -20 -20 -11 -20 -20 -20 -20 -20 -20 -20 -20 -20
-20 -20 -20 -20 -20 -20 -20 -20 -20 -20 -20 -20 -20 -20 -20 -20 -20 -20 -20 -20 -20 -20 -20 -20 -20 -20 -20 -20 -20 -20 -20 -20 -20 -20 -20 -20 -20 -20 -20 -20 -11 3 -0 7 -9 -20 3 -20 -20
-20 -20 -20 -20 -20 -20 -20 -20 -20 -20 -20 -20 -20 -20 -20 -20 -20 -20 -20 -20 -20 -20 -20 -20 -20 -20 -20 -20 -20 -20 -20 -20 -20 -20 -20 -20 -20 -20 -20 2 -6 30 25 24 34 27 18 -5 -12
-20 -20 -20 -20 -20 -20 -20 -20 -20 -20 -20 -20 -20 -20 -20 -20 -20 -20 -20 -20 -20 -20 -20 -20 -20 -20 -19 -13 -19 -20 -20 -20 -20 -20 -20 -20 -20 -20 -20 21 -6 9 15 23 16 15 -10 -18 16
-20 -20 -20 -20 -20 -20 -20 -20 -20 -20 -20 -20 -20 -20 -20 -20 -20 -20 -20 -20 -11 -20 -20 -20 -20 -20 -20 -20 -10 -14 -20 -20 -20 -20 -20 -20 -20 -20 -1 -7 9 -10 -18 -6 10 9 -2 -11 23
-20 -20 -20 -20 -20 -20 -20 -20 -20 -20 -20 -20 -20 -20 -20 -20 -20 -20 -20 -20 -20 -19 -7 -19 -20 -19 -9 -20 -13 -20 -20 -2 -20 -20 -20 -20 -20 -20 -20 -14 -20 -20 -20 -20 -20 2 10 10 15
-20 -20 -20 -20 -20 -20 -20 -20 -20 -20 -20 -20 -20 -20 -20 -20 -20 -20 -20 -20 -20 -20 -20 -20 -15 -17 -13 -9 -19 -4 -17 -6 -20 -19 1 5 -20 -14 -6 -4 0 -15 -1 -10 -20 -20 4 -11 25
-20 -20 -20 -20 -20 -20 -20 -20 -20 -20 -20 -20 -20 -20 -20 -20 -20 -20 -20 -20 -20 -20 -20 -20 -20 -16 -17 11 -20 -10 -6 -5 -1 1 9 13 17 9 -2 23 9 16 -1 8 14 13 12 32 28
-20 -20 -20 -20 -20 -20 -20 -20 -20 -20 -20 -20 -20 -20 -20 -20 -20 -20 -20 -20 -20 -20 -20 -20 -20 -20 -15 6 8 -19 4 -1 1 10 9 15 18 2 26 -7 24 2 12 29 48 36 38 13 14
-20 -20 -20 -20 -20 -20 -20 -20 -20 -20 -20 -20 -20 -20 -20 -20 -20 -20 -20 -20 -20 -20 -20 -20 -20 5 -13 27 9 1 -1 5 17 16 17 17 14 19 22 22 21 33 34 46 48 40 32 33 13
-20 -20 -20 -20 -20 -20 -20 -20 -20 -20 -20 -20 -20 -20 -20 -20 -20 -20 -20 -20 -20 -20 -20 -20 -20 -6 25 9 20 12 23 27 24 30 23 25 20 27 20 22 30 28 24 39 40 38 27 12 -10
-20 -20 -20 -20 -20 -20 -20 -20 -20 -20 -20 -20 -20 -20 -20 -20 -20 -20 -20 -20 -20 -20 -20 -20 -20 -1 7 13 24 18 -10 25 22 18 20 31 20 26 28 24 29 30 22 23 26 22 11 3 -3
-20 -20 -20 -20 -20 -20 -20 -19 -20 -20 -20 -20 -20 -20 -20 -20 -20 -20 -20 -20 -20 -20 -20 -20 -9 -5 -20 9 34 32 28 25 21 10 22 24 14 26 6 21 -16 -4 -5 2 13 23 24 15 12
Wind_Speed
8 6 4 6 7 7 6 8 3 3 2 4 3 4 7 8 7 7 4 9 16 17 18 18 15 17 17 14 12 11 13 15 16 15 15 14 13 12 11 9 9 10 12 12 12 12 12 11 11
7 4 6 3 8 6 8 2 3 3 3 2 3 7 7 6 3 1 5 12 16 18 17 18 13 16 18 17 15 12 12 14 15 15 15 16 16 15 14 13 12 12 13 13 13 13 13 12 10
7 6 6 4 1 7 5 3 6 4 6 6 3 4 6 4 2 4 5 16 20 19 18 16 14 14 17 19 19 17 16 15 14 14 15 15 16 16 15 13 11 12 14 14 13 13 12 11 10
4 5 6 6 9 8 7 7 4 6 3 5 5 8 2 3 2 3 12 16 20 20 19 18 16 13 15 16 17 17 16 16 15 15 15 15 15 15 15 14 13 13 13 14 14 13 11 10 10
4 4 3 3 8 8 9 11 7 4 4 4 6 10 4 5 3 6 15 15 19 19 18 19 17 16 16 17 16 15 15 15 16 16 15 15 15 15 15 14 14 14 13 13 12 12 11 10 10
4 3 5 5 7 6 7 12 6 6 3 5 7 12 3 5 8 8 13 14 16 17 17 18 20 19 18 16 16 15 14 13 13 12 13 14 13 13 13 14 13 12 12 12 11 11 11 10 10
5 5 3 1 3 4 7 12 6 10 5 7 5 10 3 5 6 9 12 12 14 16 15 15 19 19 18 18 16 14 15 15 14 13 11 11 10 11 12 11 10 11 11 10 10 11 10 10 9
3 4 3 1 2 2 6 11 7 9 6 6 5 5 5 7 8 8 11 13 14 15 16 16 17 18 18 18 17 17 16 14 14 14 14 12 11 11 11 11 13 13 11 10 10 10 10 9 9
2 6 5 2 4 5 7 9 6 8 8 9 6 9 8 1 7 10 10 14 14 14 16 17 18 19 18 18 17 16 17 16 14 13 13 12 13 14 15 14 10 12 11 11 11 10 9 9 9
5 5 2 2 6 7 9 9 12 9 12 3 10 9 8 5 8 13 15 16 19 20 20 18 19 19 18 15 16 17 15 14 15 15 16 14 14 13 13 12 11 10 10 10 11 10 9 9 10
0 6 2 7 6 8 14 16 3 13 14 11 11 13 17 17 12 15 17 19 20 19 17 20 19 18 19 15 12 9 10 10 12 17 16 14 12 11 10 8 9 11 13 10 12 11 11 13 10
8 5 7 7 4 13 16 18 17 15 15 8 8 14 12 15 14 15 16 17 18 17 19 19 19 17 17 13 12 12 11 12 11 14 17 12 10 11 10 9 10 10 9 12 11 9 11 12 12
9 4 4 10 12 13 15 16 15 15 10 9 14 14 14 12 15 15 14 15 15 17 15 17 17 17 16 17 13 13 13 12 13 13 15 14 13 12 11 10 10 9 10 10 10 10 9 11 12
5 11 14 13 14 3 7 9 7 4 11 18 16 16 15 15 14 13 12 15 15 16 17 16 19 18 17 17 17 13 13 14 13 13 14 18 13 11 11 11 11 10 9 9 10 10 10 10 10
8 14 16 13 1 3 5 13 6 5 16 19 19 18 17 16 14 12 13 14 13 15 16 18 18 18 20 20 18 15 14 14 14 14 15 17 17 15 14 11 11 10 10 11 10 10 10 10 10
11 11 9 2 9 3 12 14 7 19 17 17 21 17 15 16 15 13 12 13 11 12 13 15 15 18 20 19 16 14 14 14 14 14 14 18 18 18 15 12 12 11 10 9 10 10 10 10 10
9 11 13 13 7 16 13 22 15 9 17 19 14 16 15 14 17 17 15 14 13 11 10 14 15 19 20 19 17 16 15 14 15 14 14 18 19 19 15 13 11 12 10 10 10 9 10 10 10
16 16 17 19 15 19 20 21 18 16 14 18 14 18 13 15 14 15 16 16 15 13 12 12 12 16 17 15 14 14 14 15 14 15 15 18 16 19 15 13 12 12 11 10 10 11 10 10 10
11 15 18 18 15 16 19 24 22 22 18 14 17 15 15 16 15 15 16 17 18 16 13 13 14 14 12 14 14 14 16 14 13 15 18 18 16 18 17 13 13 10 10 10 9 10 10 10 9
11 16 18 16 15 15 21 25 22 20 16 16 15 15 15 16 17 17 17 18 18 17 17 17 16 14 14 14 13 13 13 14 14 14 16 19 18 18 17 16 12 16 13 12 13 11 7 7 7
14 12 14 20 19 19 21 20 18 12 8 14 13 13 13 16 17 19 21 20 19 19 19 20 21 19 14 16 13 13 12 12 13 14 14 16 20 19 18 17 13 13 12 12 13 12 17 10 9
15 13 14 16 18 16 15 23 19 11 13 12 12 14 16 18 19 18 21 23 22 21 20 20 21 21 16 15 14 17 14 15 12 13 12 13 17 17 18 19 18 17 12 13 13 13 13 9 9
12 11 15 17 19 20 16 12 12 5 5 9 12 13 15 16 18 21 22 22 22 21 19 18 22 22 19 16 17 13 17 13 12 11 14 12 10 17 22 19 19 17 13 15 12 12 14 10 6
9 11 16 17 13 12 2 6 9 4 3 5 8 12 14 16 18 19 20 21 21 23 21 20 22 23 22 17 16 16 16 14 13 12 6 7 10 12 16 17 16 14 12 13 12 11 10 10 9
12 12 10 7 7 10 2 14 12 7 5 5 9 13 15 16 17 19 22 23 24 25 25 21 20 21 21 21 14 12 15 14 16 14 8 10 5 1 0 2 5 5 5 2 2 9 7 3 6
11 7 6 8 9 17 18 12 5 10 6 4 7 11 14 17 17 19 20 21 23 24 25 22 19 19 17 18 15 14 10 4 4 12 10 8 8 7 9 14 14 18 16 13 7 11 3 10 6
3 8 9 13 18 17 13 18 9 10 6 3 8 12 16 18 19 19 20 20 22 22 24 20 17 16 16 13 11 12 13 13 11 14 11 9 8 7 9 11 13 17 13 15 14 9 8 5 6
10 10 8 10 7 11 13 22 18 12 4 4 10 14 17 18 20 20 19 20 19 20 21 19 13 13 14 12 10 9 10 11 12 12 13 11 11 10 11 13 14 12 14 12 9 6 6 7 6
12 13 12 11 13 16 17 15 5 4 1 6 11 16 20 21 21 19 19 20 20 20 20 19 13 10 11 11 9 10 12 12 11 13 12 11 13 12 13 13 13 15 14 10 11 10 8 9 7
11 13 11 10 14 10 12 22 10 7 9 14 17 17 19 18 18 18 18 18 19 20 19 20 12 8 7 8 9 9 9 10 13 13 15 12 13 15 14 14 15 15 14 13 11 11 10 8 9
Wind_Direction
240 274 271 239 234 245 107 81 353 75 158 39 92 271 340 331 337 6 81 156 153 157 158 177 172 157 150 152 150 153 148 146 148 150 149 148 147 146 144 143 142 142 140 137 136 134 134 132 129
299 265 223 259 254 190 92 37 66 22 28 38 218 236 261 334 329 3 168 157 153 154 159 179 177 162 153 150 152 159 156 156 158 159 159 158 158 158 159 160 160 157 153 151 149 146 143 138 133
271 269 265 263 269 51 71 21 339 316 291 256 241 265 312 343 36 349 88 158 162 159 163 171 174 172 163 158 159 162 163 164 164 167 166 168 165 165 167 168 169 164 161 160 160 157 153 149 147
285 206 212 266 96 72 35 359 321 277 181 231 259 281 206 30 331 31 152 164 164 165 168 144 171 179 171 167 167 166 166 167 168 172 174 175 175 174 174 174 174 172 171 170 167 164 160 159 161
240 239 235 129 90 83 50 20 22 321 279 231 248 280 267 141 132 126 151 168 173 171 172 161 172 177 181 174 174 175 174 175 177 176 178 180 182 183 179 180 179 179 179 178 172 168 168 173 177
238 271 234 169 115 92 56 1 335 4 346 269 257 270 302 118 168 149 158 172 178 177 180 172 175 177 176 184 181 178 183 181 183 184 182 185 189 191 191 186 187 186 185 182 177 176 177 180 185
320 307 24 89 94 163 12 344 12 334 314 29 322 277 63 179 149 163 170 167 184 182 187 182 186 184 179 179 184 186 185 186 187 184 188 196 197 194 193 195 201 196 194 192 185 184 188 190 196
322 281 215 118 29 73 13 347 346 349 9 319 325 311 2 69 167 177 178 175 183 192 192 193 192 192 194 189 186 185 188 192 190 189 189 195 198 203 203 202 199 199 203 203 201 196 198 205 207
251 243 224 181 291 347 349 334 351 321 281 328 329 304 9 85 177 201 197 196 186 198 201 200 197 197 201 201 193 192 190 187 191 197 201 195 211 207 213 212 199 205 207 206 207 209 212 214 222
284 273 360 4 316 299 302 313 320 310 308 301 332 318 259 261 231 220 211 209 204 200 203 203 208 204 202 207 203 204 203 207 207 206 205 212 215 220 214 209 200 200 212 217 218 217 216 220 239
342 300 351 289 310 315 308 298 303 291 288 4 333 326 303 283 257 247 241 232 215 214 207 206 200 209 208 207 204 201 207 207 210 215 214 211 215 219 211 220 201 216 205 224 210 214 225 228 235
279 257 283 307 299 303 297 304 293 282 289 359 341 325 324 286 267 260 260 255 243 217 217 207 205 205 210 217 209 213 211 209 213 210 213 221 213 215 222 215 213 209 211 213 227 218 229 226 232
259 300 274 287 293 287 301 281 291 288 18 325 316 322 332 331 290 278 273 273 259 234 226 218 209 206 209 215 219 219 218 214 219 217 209 217 218 218 215 221 221 219 214 213 223 229 228 229 235
350 298 292 289 292 292 288 308 284 78 345 329 329 328 324 319 310 296 274 263 254 243 228 218 219 211 211 217 222 220 222 223 218 225 218 210 221 218 215 219 220 223 223 222 224 226 230 232 241
287 289 298 280 300 335 314 259 236 360 331 321 324 323 317 318 318 303 297 290 263 253 238 224 216 215 214 218 218 219 225 221 223 222 220 217 212 220 218 217 219 220 220 230 230 234 234 249 246
277 279 276 97 337 95 327 296 347 321 323 317 318 318 327 324 322 346 349 318 300 274 254 236 223 221 220 219 217 220 217 221 223 222 220 215 219 218 212 218 216 218 220 220 227 228 236 239 247
213 284 311 302 297 312 304 301 300 321 310 310 312 321 321 325 358 359 344 351 340 315 278 250 239 231 226 223 225 222 224 219 218 219 217 213 213 216 219 216 217 215 218 220 227 233 240 248 247
325 309 303 302 317 308 307 298 310 304 312 303 311 315 324 357 357 2 357 351 349 346 329 294 258 244 231 230 228 231 223 225 220 219 216 211 210 210 208 218 214 214 223 223 221 225 238 243 255
295 291 295 299 322 308 303 300 305 308 300 297 315 325 3 344 353 1 357 351 347 346 336 335 311 282 241 232 231 225 224 221 222 223 222 219 212 205 204 203 206 199 221 224 232 232 226 245 235
298 297 293 309 304 311 302 296 294 291 302 313 21 12 1 353 353 358 2 358 351 344 341 332 324 307 279 241 237 235 231 232 228 223 220 217 212 209 203 202 203 191 190 200 206 209 216 230 231
293 291 307 308 308 287 289 297 293 319 341 53 42 18 10 6 1 0 1 1 356 353 344 335 329 322 299 278 246 237 237 240 231 223 219 215 211 207 210 213 202 193 203 212 192 190 203 205 214
299 332 310 300 305 301 322 295 298 314 63 50 29 17 11 5 0 0 359 357 357 354 345 339 331 322 311 295 257 236 233 234 239 240 227 222 209 206 205 218 214 206 207 205 195 183 207 196 214
304 318 298 295 288 293 286 262 294 35 27 23 19 19 12 10 5 2 358 353 355 350 348 343 336 326 321 306 283 234 232 239 245 242 238 215 188 201 213 213 214 212 210 218 197 186 195 203 197
319 291 292 279 269 268 359 290 302 357 26 49 28 28 16 9 6 360 358 355 355 355 348 348 342 331 331 319 292 254 238 231 245 239 220 198 189 210 220 216 216 214 219 230 211 200 183 201 189
337 317 305 271 229 274 242 294 272 131 118 44 20 15 10 8 4 356 356 357 357 353 347 348 342 332 338 325 314 271 245 235 245 245 213 200 192 126 187 229 45 27 359 283 151 104 92 79 84
306 310 296 297 303 303 303 264 334 97 120 38 13 9 2 2 0 356 353 352 350 351 348 344 344 337 340 346 1 9 337 283 357 37 69 83 92 93 98 95 81 67 51 8 70 58 72 69 77
18 261 356 286 273 267 264 267 163 173 168 10 5 1 359 354 353 351 348 351 345 345 350 348 341 340 346 345 4 28 46 58 63 62 67 75 83 80 78 89 96 97 94 50 351 31 60 83 85
249 330 269 211 274 274 275 294 294 171 209 333 357 353 346 344 343 345 346 348 342 344 342 345 351 348 341 352 16 32 55 67 69 73 65 63 64 57 66 79 74 82 84 108 99 57 62 75 72
284 256 246 273 271 273 283 273 87 72 71 354 342 332 340 338 339 344 342 342 341 341 339 339 354 352 353 357 24 41 58 51 64 70 66 69 71 67 67 76 79 77 80 83 97 98 85 83 84
277 266 257 255 277 278 283 269 325 233 263 309 306 316 332 329 330 338 338 340 340 340 340 336 348 345 13 5 21 38 67 65 64 78 76 67 73 81 74 77 76 77 73 79 81 84 85 84 82